Creek Data

    Home     View Charts     View Raw Data     Messages

ID Distance Battery Voltage Battery Current Internal Temp Internal Humidity External Temp Solar Input rssi snr Time Stamp Record
64611 14.9 3.80 -5 46 50 47 0 -76 9 01/27/2026 08:15 PM 47371
64610 14.8 3.69 -5 46 50 47 0.1 -75 8 01/27/2026 08:00 PM 47370
64609 14.8 3.70 -5 46 50 47 0 -76 8 01/27/2026 07:45 PM 47369
64608 14.8 3.69 -5 46 50 47 0 -76 9 01/27/2026 07:30 PM 47368
64607 14.9 3.69 -5 47 51 47 0 -75 8 01/27/2026 07:15 PM 47367
64606 14.9 3.64 -5 47 51 47 0 -75 8 01/27/2026 07:00 PM 47366
64605 14.9 3.80 -5 47 51 47 0 -76 8 01/27/2026 06:45 PM 47365
64604 14.8 3.80 -5 48 51 48 0 -75 9 01/27/2026 06:30 PM 47364
64603 14.8 3.80 -5 48 51 48 0 -75 9 01/27/2026 06:15 PM 47363
64602 14.8 3.66 -5 49 51 49 0 -75 9 01/27/2026 06:00 PM 47362
64601 14.9 3.66 -5 49 52 48 0 -76 8 01/27/2026 05:45 PM 47361
64600 14.8 3.71 -5 50 52 49 1.6 -75 8 01/27/2026 05:30 PM 47360
64599 14.9 3.73 0 51 52 51 4.5 -75 8 01/27/2026 05:00 PM 47358
64598 14.8 3.85 7 53 52 52 4.6 -76 8 01/27/2026 04:45 PM 47357
64597 14.9 3.87 8 53 53 52 4.6 -77 8 01/27/2026 04:30 PM 47356
64596 14.9 3.87 6 54 53 53 4.5 -78 8 01/27/2026 04:15 PM 47355
64595 14.9 3.88 10 55 53 53 4.5 -77 9 01/27/2026 04:00 PM 47354
64594 14.9 3.83 20 57 54 54 4.5 -77 8 01/27/2026 03:45 PM 47353
64593 14.9 3.94 7 58 54 55 4.5 -77 8 01/27/2026 03:30 PM 47352
64592 14.9 3.78 0 61 54 56 5.1 -76 8 01/27/2026 03:15 PM 47351
64591 15.0 3.78 0 64 53 57 5.1 -76 7 01/27/2026 03:00 PM 47350
64590 15.0 4.05 0 70 48 59 5.1 -76 8 01/27/2026 02:45 PM 47349
64589 15.0 3.85 5 71 47 59 5.1 -76 7 01/27/2026 02:30 PM 47348
64588 15.1 3.81 5 73 44 59 5.1 -77 8 01/27/2026 02:15 PM 47347
64587 15.1 3.80 5 73 43 59 5.1 -76 8 01/27/2026 02:00 PM 47346